AO-07 1 07530U 74089B 20366.37242588 -.00000042 00000-0 19964-4 0 9999 2 07530 101.8310 335.2170 0012277 346.5098 179.8024 12.53646807110663 UO-11 1 14781U 84021B 20366.75490706 .00000138 00000-0 22962-4 0 9998 2 14781 97.5893 8.8995 0006945 273.6933 86.3487 14.83232730982075 LO-19 1 20442U 90005G 20366.34991863 -.00000002 00000-0 15892-4 0 9998 2 20442 98.7194 314.5035 0010771 298.5204 61.4895 14.32972207616754 HUBBLE 1 20580U 90037B 20366.60128515 .00000651 00000-0 28533-4 0 9996 2 20580 28.4700 95.6060 0002912 57.0421 85.2512 15.09525089485731 MET-2/21 1 22782U 93055A 20366.18847081 -.00000008 00000-0 -20627-4 0 9998 2 22782 82.5492 77.4630 0023233 46.1017 9.2054 13.83833071380257 AO-27 1 22825U 93061C 20366.25436418 .00000002 00000-0 18920-4 0 9994 2 22825 98.9242 13.6761 0008806 157.9591 202.1971 14.30102406421941 IO-26 1 22826U 93061D 20366.75413331 -.00000003 00000-0 16939-4 0 9999 2 22826 98.9184 14.1137 0009554 145.3616 214.8189 14.30439825422502 FO-29 1 24278U 96046B 20366.22731711 -.00000022 00000-0 16082-4 0 9995 2 24278 98.5867 90.3622 0349707 225.2502 131.9688 13.53101725203490 NOAA-15 1 25338U 98030A 20366.81241691 .00000030 00000-0 31216-4 0 9990 2 25338 98.6998 30.6846 0011171 52.6210 307.5985 14.26006584177352 GO-32 1 25397U 98043D 20366.57965968 -.00000016 00000-0 12327-4 0 9999 2 25397 98.7525 306.7742 0001172 155.9059 204.2175 14.23698247167605 ISS 1 25544U 98067A 20366.56160367 .00001488 00000-0 34854-4 0 9990 2 25544 51.6464 91.8582 0001153 171.2179 316.6048 15.49243528262617 NO-44 1 26931U 01043C 20366.39133204 -.00000011 00000-0 27701-4 0 9995 2 26931 67.0517 354.1649 0007423 272.9377 87.0875 14.30601135 5200 SO-50 1 27607U 02058C 20366.51000493 .00000061 00000-0 29074-4 0 9999 2 27607 64.5550 131.8744 0029550 97.5766 262.8695 14.75697897969799 CO-55 1 27844U 03031E 20366.48388960 .00000065 00000-0 48988-4 0 9997 2 27844 98.6814 11.2387 0009511 199.4905 160.5910 14.22279395908102 CO-57 1 27848U 03031J 20366.49771723 .00000049 00000-0 41942-4 0 9990 2 27848 98.6875 11.8201 0009163 212.9172 147.1436 14.21860619907943 RS-22 1 27939U 03042A 20366.86065887 .00000099 00000-0 26317-4 0 9995 2 27939 98.1163 139.4000 0014227 91.1604 269.1236 14.66928552922958 NOAA-18 1 28654U 05018A 20366.78876308 .00000094 00000-0 75158-4 0 9996 2 28654 99.0188 64.8057 0014703 38.5862 321.6358 14.12569184804864 CO-58 1 28895U 05043F 20366.62101912 .00000176 00000-0 42582-4 0 9992 2 28895 98.0348 137.7924 0017128 23.5624 336.6360 14.63848506809458 Falconsat-3 1 30776U 07006E 20366.65052405 .00005185 00000-0 13117-3 0 9995 2 30776 35.4348 97.3575 0002530 188.8327 171.2356 15.39208894767223 CO-65 1 32785U 08021C 20366.76320807 .00000390 00000-0 47422-4 0 9991 2 32785 97.5927 346.3213 0012527 192.7525 167.3377 14.88602030687294 AAUSAT2 1 32788U 08021F 20366.74386253 .00001285 00000-0 12131-3 0 9991 2 32788 97.4967 2.5517 0013229 110.7049 249.5592 14.95325797688898 DO-64 1 32789U 08021G 20366.41166928 .00001873 00000-0 12438-3 0 9994 2 32789 97.3960 42.1354 0011880 7.9561 352.1854 15.08343295691497 CO-66 1 32791U 08021J 20366.42052297 .00000437 00000-0 49250-4 0 9999 2 32791 97.5560 352.0461 0013653 159.9468 200.2290 14.91233123687811 RS-30 1 32953U 08025A 20366.66174501 .00000028 00000-0 12906-3 0 9995 2 32953 82.5018 155.2842 0018940 344.8739 15.1772 12.43099391572137 PRISM 1 33493U 09002B 20366.61451553 .00001651 00000-0 14742-3 0 9994 2 33493 98.1680 315.3372 0016426 119.6090 240.6769 14.97353573649218 NOAA-19 1 33591U 09005A 20366.80744881 .00000030 00000-0 41498-4 0 9995 2 33591 99.1929 17.2726 0013178 240.9570 119.0281 14.12446524613256 TISAT-1 1 36799U 10035E 20366.74931909 .00000428 00000-0 48818-4 0 9999 2 36799 98.2014 184.7924 0013090 47.7269 312.5056 14.91556311568538 JUGNU 1 37839U 11058B 20366.15758889 .00000281 00000-0 80563-5 0 9991 2 37839 19.9595 169.8553 0018977 36.9014 118.8821 14.12698944476635 SRMSAT 1 37841U 11058D 20366.37673378 .00000309 00000-0 24562-4 0 9994 2 37841 19.9709 236.9330 0011837 247.0396 269.8719 14.10681997475966 AO-71 1 37854U 11061E 20366.48055243 .00003581 00000-0 18311-3 0 9998 2 37854 101.7120 199.7042 0156284 195.6924 163.9416 15.07994631501163 HRBE 1 37855U 11061F 20366.75273549 .00003930 00000-0 19684-3 0 9992 2 37855 101.7252 197.1754 0168849 209.2234 149.9452 15.07017059501386 HORYU-2 1 38340U 12025D 20366.76812726 .00000279 00000-0 48458-4 0 9995 2 38340 98.2562 64.8169 0012532 128.1833 232.0506 14.75953317464068 RS-40 1 38735U 12041C 20366.79711158 .00000004 00000-0 -40077-4 0 9997 2 38735 82.4765 237.6029 0017712 90.1890 270.1217 12.42580875382368 BEESAT-3 1 39135U 13015F 20366.76558661 .00002075 00000-0 10845-3 0 9997 2 39135 64.8681 23.9626 0020499 210.6020 149.3912 15.18779534425560 BEESAT-2 1 39136U 13015G 20366.43084667 .00002006 00000-0 10644-3 0 9993 2 39136 64.8761 30.7600 0030559 264.3156 95.4486 15.18161686425001 ZACUBE-1 1 39417U 13066B 20365.93141281 .00000444 00000-0 61655-4 0 9994 2 39417 97.5778 353.1597 0058624 355.1540 4.9099 14.81397338384126 TRITON-1 1 39427U 13066M 20366.59275317 .00000243 00000-0 46422-4 0 9998 2 39427 97.7544 316.8677 0113753 166.9164 193.5036 14.68123880380788 GOMX-1 1 39430U 13066Q 20366.77861982 .00000337 00000-0 70319-4 0 9997 2 39430 97.8074 293.5368 0149501 283.2253 75.2320 14.59515172378587 LO-74 1 39440U 13066AA 20366.41750292 .00000422 00000-0 65008-4 0 9994 2 39440 97.6549 338.2889 0081279 61.2975 299.6374 14.76129315381630 AO-73 1 39444U 13066AE 20366.42223043 .00000573 00000-0 76201-4 0 9992 2 39444 97.5700 355.9447 0057438 344.7804 15.1680 14.82280071382544 SPROUT 1 39770U 14029E 20366.72907696 .00001027 00000-0 11761-3 0 9994 2 39770 97.9064 112.3336 0009815 44.7169 315.4858 14.88098520358393 DUCHIFAT-1 1 40021U 14033M 20366.31616977 .00000836 00000-0 90043-4 0 9992 2 40021 97.9587 298.9065 0013045 5.0009 355.1337 14.91126811355228 NANOSATCBR1 1 40024U 14033Q 20366.38339316 .00000583 00000-0 65906-4 0 9990 2 40024 97.9406 294.6787 0012462 10.1857 349.9611 14.90260269354562 DTUSAT-2 1 40030U 14033W 20366.47981477 .00000509 00000-0 60222-4 0 9992 2 40030 97.9106 287.8422 0012250 14.1285 346.0272 14.88856863354323 EO-80 1 40032U 14033Y 20366.37076530 .00000470 00000-0 56164-4 0 9995 2 40032 97.9114 287.7373 0012214 15.5601 344.5989 14.88810144354280 ANTELSAT 1 40034U 14033AA 20366.15649276 .00000332 00000-0 55987-4 0 9995 2 40034 97.6906 212.1842 0059915 83.0794 277.7226 14.74371357350867 VELOX-1 1 40057U 14034E 20366.85359928 .00000517 00000-0 79226-4 0 9997 2 40057 98.3040 149.5779 0010012 229.5148 130.5194 14.78029828350784 DAURIA DX 1 1 40071U 14037C 20366.81413751 .00000186 00000-0 31361-4 0 9997 2 40071 98.4577 196.1931 0007573 219.1800 140.8865 14.81436167350479 HODOYOSHI-1 1 40299U 14070B 20366.73836854 .00001200 00000-0 51763-4 0 9996 2 40299 97.3067 78.7300 0011850 213.8450 245.2052 15.24393812341861 CHUBUSAT-1 1 40300U 14070C 20366.77026593 .00001086 00000-0 49148-4 0 9990 2 40300 97.2647 69.8060 0018275 236.9316 268.9813 15.22857484341535 QSAT-EOS 1 40301U 14070D 20366.73109461 .00003515 00000-0 13108-3 0 9998 2 40301 97.2753 76.5428 0023811 205.5844 253.6515 15.27814657342044 FIREBIRD FU3 1 40377U 15003B 20366.75367149 .00002886 00000-0 11037-3 0 9998 2 40377 99.0845 107.2916 0120981 15.0988 345.3802 15.21176684327295 FIREBIRD FU4 1 40378U 15003C 20366.73506775 .00002875 00000-0 10981-3 0 9992 2 40378 99.0851 107.3848 0121105 15.0014 345.4757 15.21213843327296 GRIFEX 1 40379U 15003D 20366.73707500 .00002253 00000-0 95219-4 0 9990 2 40379 99.0861 98.0575 0131322 43.8177 317.3381 15.17208126326756 NO-84 1 40654U 15025D 20365.33863385 .00021189 00000-0 20446-3 0 1416 2 40654 54.9839 114.1505 0097970 340.6744 19.0579 15.60537641199532 DEORBITSAIL 1 40719U 15032E 20366.22459122 .00000631 00000-0 96138-4 0 9997 2 40719 97.8479 249.7589 0015163 294.7439 65.2193 14.77191845295149 NUDT-PHONESAT 1 40900U 15049B 20366.75997728 .00004423 00000-0 17864-3 0 9995 2 40900 97.4261 16.0719 0012832 18.2182 97.1145 15.25215413293253 XW-2A 1 40903U 15049E 20366.72915226 .00003945 00000-0 87940-4 0 9999 2 40903 97.2625 55.6139 0010904 265.9385 242.1657 15.44134653296909 XW-2C 1 40906U 15049H 20366.78840832 .00001118 00000-0 60873-4 0 9994 2 40906 97.4815 5.3226 0016027 53.5267 119.8558 15.16400020292152 XW-2D 1 40907U 15049J 20366.74946918 .00001520 00000-0 80855-4 0 9992 2 40907 97.4802 5.0294 0015376 50.4597 121.7361 15.16677355292172 LILACSAT-2 1 40908U 15049K 20366.71643339 .00000660 00000-0 39629-4 0 9998 2 40908 97.4980 3.0786 0017310 62.6568 52.5878 15.14237748291840 XW-2E 1 40909U 15049L 20366.75319330 .00001989 00000-0 98179-4 0 9994 2 40909 97.4654 8.8187 0014515 40.4723 47.1451 15.18969232292479 XW-2F 1 40910U 15049M 20366.83183675 .00001946 00000-0 97478-4 0 9990 2 40910 97.4698 7.9702 0015479 39.3991 38.8429 15.18474682292287 XW-2B 1 40911U 15049N 20366.73273668 .00001508 00000-0 80466-4 0 9995 2 40911 97.4808 5.7088 0015313 51.6010 62.9223 15.16598885292066 DCBB 1 40912U 15049P 20366.79280301 .00002311 00000-0 10728-3 0 9990 2 40912 97.4470 12.2402 0014919 15.7455 157.2751 15.20939063292707 TW-1C 1 40926U 15051B 20366.85838024 .00147376 00000-0 62424-3 0 9997 2 40926 97.0546 61.3146 0003496 67.7007 50.2626 15.84958006298033 TW-1A 1 40928U 15051D 20366.86170451 .00005653 00000-0 12507-3 0 9991 2 40928 97.0922 29.8460 0009881 175.6888 356.4850 15.44151440295817 IO-86 1 40931U 15052B 20366.70547985 .00000677 00000-0 52309-5 0 9996 2 40931 5.9973 8.6899 0012462 191.2089 168.8013 14.76656478284462 LQSat 1 40958U 15057A 20366.70822991 .00000064 00000-0 17486-4 0 9999 2 40958 97.8290 63.3848 0016881 233.8151 126.1495 14.73149185281543 ATHENOXAT-1 1 41168U 15077C 20366.82820389 .00003334 00000-0 13667-3 0 9996 2 41168 14.9901 52.7575 0011517 357.6960 148.7374 15.15025620279311 ChubuSat-2 1 41338U 16012B 20366.76168363 .00000450 00000-0 28090-4 0 9998 2 41338 31.0018 172.1365 0013870 271.9277 87.9770 15.00414154267393 ChubuSat-3 1 41339U 16012C 20366.80167899 .00000476 00000-0 30022-4 0 9993 2 41339 31.0105 169.2884 0013781 281.1245 78.7838 15.00570879267393 Horyu-4 1 41340U 16012D 20366.46307031 .00000754 00000-0 49947-4 0 9996 2 41340 31.0039 157.0154 0014040 304.5483 55.3827 15.01697469267518 OUFTI-1 1 41458U 16025C 20366.39388133 .00002884 00000-0 14531-3 0 9990 2 41458 98.1227 127.7107 0159633 266.2736 92.0225 15.07682517257148 e-st@r-II 1 41459U 16025D 20366.76550892 .00002278 00000-0 11669-3 0 9991 2 41459 98.1203 127.3431 0161602 267.4617 90.8124 15.07175679257150 AAUSAT4 1 41460U 16025E 20366.64968237 .00004223 00000-0 20457-3 0 9993 2 41460 98.1190 130.3103 0149488 254.1622 104.3090 15.09832181257382 LO-87 1 41557U 16033B 20366.74838884 .00002736 00000-0 10042-3 0 9990 2 41557 97.4001 95.7188 0014816 107.6395 43.3952 15.28715493255906 NuSat2 1 41558U 16033C 20366.77189080 .00003045 00000-0 10474-3 0 9994 2 41558 97.4076 98.8215 0013819 103.2168 355.8808 15.30774658256066 Lapan A3 1 41603U 16040E 20366.72811610 .00000389 00000-0 21169-4 0 9991 2 41603 97.2831 53.7822 0011985 226.4507 272.5716 15.19938181251108 Swayam 1 41607U 16040J 20366.43592032 .00003085 00000-0 12621-3 0 9995 2 41607 97.2928 60.9471 0012119 205.0329 155.0323 15.25014383251435 Pratham 1 41783U 16059A 20366.57251849 .00000117 00000-0 31564-4 0 9994 2 41783 97.9905 56.2029 0034625 56.7735 303.6778 14.63101709227705 AlSat 1N 1 41789U 16059G 20366.76088745 .00000122 00000-0 31862-4 0 9991 2 41789 97.9955 59.6747 0029245 43.2063 317.1419 14.64376010227901 ScatSat 1 41790U 16059H 20366.77341297 .00000038 00000-0 21007-4 0 9994 2 41790 98.3927 43.3579 0006180 42.0140 318.1523 14.50801576225838 TY-1 1 41844U 16066D 20366.74200755 .00001708 00000-0 70501-4 0 9990 2 41844 97.4010 12.7298 0015434 15.6540 99.6230 15.25305244230332 Pegasus-1 1 41846U 16066F 20366.08811490 .00000351 00000-0 63324-4 0 9991 2 41846 98.6362 57.9384 0366427 7.6091 353.0449 14.37910773217220 CAS-2T 1 41847U 16066G 20366.17796161 .00000131 00000-0 30232-4 0 9997 2 41847 98.6279 58.3935 0365492 2.7033 357.6018 14.38132083217692 EO-88 1 42017U 17008BX 20366.42604197 .00003078 00000-0 11780-3 0 9998 2 42017 97.3386 70.9420 0005801 0.9326 359.1923 15.27304069215601 CAS-4B 1 42759U 17034B 20366.76891870 .00000555 00000-0 46920-4 0 9995 2 42759 43.0192 22.8168 0009533 201.3586 328.2180 15.10025014195794 CAS-4A 1 42761U 17034D 20366.76901529 .00000628 00000-0 51225-4 0 9996 2 42761 43.0191 21.9876 0010531 201.7110 327.9110 15.10105934195798 UCLSat 1 42765U 17036A 20366.42630531 .00002460 00000-0 10373-3 0 9991 2 42765 97.2752 55.1372 0012446 56.9297 303.3134 15.24168709196574 NIUSat 1 42766U 17036B 20366.84750325 .00001685 00000-0 76058-4 0 9993 2 42766 97.2749 52.4617 0016485 50.4617 309.8073 15.22209463195714 LituanicaSAT 2 1 42768U 17036D 20366.44280201 .00004103 00000-0 16610-3 0 9997 2 42768 97.2819 55.4939 0015256 45.8766 314.3724 15.25133703195857 Aalto 1 1 42775U 17036L 20366.55675105 .00001336 00000-0 60913-4 0 9999 2 42775 97.2726 52.4946 0014958 51.0963 309.1605 15.22244500195656 URSA MAIOR 1 42776U 17036M 20366.38889052 .00001604 00000-0 72071-4 0 9995 2 42776 97.2737 52.7074 0014750 51.3149 308.9405 15.22470842195647 Max Valier Sat 1 42778U 17036P 20366.73602628 .00001606 00000-0 70884-4 0 9990 2 42778 97.2800 54.6638 0013276 53.1985 307.0468 15.23103654195753 Pegasus 1 42784U 17036V 20366.36251311 .00002214 00000-0 94620-4 0 9995 2 42784 97.2758 54.6817 0013046 58.1107 302.1398 15.23804849195759 NUDATSat 1 42787U 17036Y 20366.62901635 .00002944 00000-0 11911-3 0 9999 2 42787 97.2809 56.8341 0012749 48.9181 311.3157 15.25412626195747 SUCHAI 1 1 42788U 17036Z 20366.37574930 .00002678 00000-0 11167-3 0 9993 2 42788 97.2768 55.4802 0012497 56.2008 304.0418 15.24467729195875 SKCUBE 1 42789U 17036AA 20366.31339689 .00002488 00000-0 10459-3 0 9990 2 42789 97.2762 55.2052 0012417 56.9168 303.3260 15.24259402195774 VZLUSAT 1 1 42790U 17036AB 20366.42379476 .00003548 00000-0 14308-3 0 9997 2 42790 97.2791 56.6241 0011752 53.9100 306.3224 15.25389938195869 VENTA 1 1 42791U 17036AC 20366.42177829 .00002500 00000-0 10515-3 0 9999 2 42791 97.2759 55.3399 0012105 57.2158 303.0244 15.24236745195780 Robusta 1B 1 42792U 17036AD 20366.37269818 .00002566 00000-0 10712-3 0 9995 2 42792 97.2765 55.5795 0011995 57.0512 303.1878 15.24470514195810 D-SAT 1 42794U 17036AF 20366.50310196 .00000516 00000-0 49361-4 0 9994 2 42794 97.4752 29.2018 0127308 67.4081 294.0549 14.91412191192021 TechnoSat 1 42829U 17042E 20366.70449328 .00000181 00000-0 23468-4 0 9990 2 42829 97.4920 238.8874 0014002 353.6621 6.4419 14.91195340188683 QIKCOM-1 1 42983U 98067NF 20366.55466535 .00008185 00000-0 90823-4 0 9990 2 42983 51.6382 30.5574 0004212 74.7177 285.4284 15.63929526181101 AO-91 1 43017U 17073E 20366.32480510 .00000728 00000-0 60933-4 0 9995 2 43017 97.7174 270.8980 0257109 128.5200 233.9370 14.79236092168261 EcAMSat 1 43019U 98067NG 20366.74013091 .00019810 00000-0 15675-3 0 9995 2 43019 51.6410 7.1346 0004538 69.9165 290.2321 15.71339423263753 PICSAT 1 43132U 18004X 20366.79262778 .00002626 00000-0 10759-3 0 9992 2 43132 97.4285 76.7731 0010912 81.6600 278.5875 15.25134467165120 AO-92 1 43137U 18004AC 20366.48321920 .00002097 00000-0 87658-4 0 9993 2 43137 97.4268 76.1369 0010630 84.6262 275.6188 15.24674353165061 TianYi 2 1 43155U 18008A 20366.72209755 .00001890 00000-0 11337-3 0 9995 2 43155 97.4268 70.5757 0017340 182.6817 274.3383 15.12030295162721 Zhou Enlai 1 43156U 18008B 20366.75361646 .00001487 00000-0 91105-4 0 9991 2 43156 97.4301 70.4430 0014412 181.2053 329.6755 15.11598298162673 TianYi 6 1 43158U 18008D 20366.15393059 .00001129 00000-0 71054-4 0 9994 2 43158 97.4264 68.6680 0013479 181.8261 230.5027 15.11084871162521 S-Net D 1 43186U 18014G 20366.78392666 -.00000132 00000-0 -64612-5 0 9992 2 43186 97.6871 271.2928 0009631 287.5389 72.4780 14.96940044159211 S-Net B 1 43187U 18014H 20366.78379282 -.00000132 00000-0 -64682-5 0 9999 2 43187 97.6868 271.2649 0009626 287.4956 72.5214 14.96939670159217 S-Net A 1 43188U 18014J 20366.78370304 -.00000136 00000-0 -68107-5 0 9996 2 43188 97.6871 271.3025 0009622 287.6007 72.4163 14.96938389159214 S-Net C 1 43189U 18014K 20366.31628526 -.00000080 00000-0 -18924-5 0 9998 2 43189 97.6867 270.7994 0009611 289.3113 70.7069 14.96938593157696 FMN 1 1 43192U 18015A 20366.77203385 .00004672 00000-0 17975-3 0 9997 2 43192 97.4662 135.7535 0016566 112.7749 23.2584 15.26766319161995 Shaonian Xing 1 43199U 18015H 20366.82843500 .00003353 00000-0 13031-3 0 9993 2 43199 97.4452 133.5337 0017730 121.5957 31.1887 15.26622708162064 UBAKUSAT 1 43467U 98067NQ 20362.27906033 .06269310 12352-4 52456-3 0 9996 2 43467 51.6190 354.3668 0001241 137.3285 222.7838 16.38845679150702 SurfSat 1 43614U 18070B 20366.39337905 .00005318 00000-0 13067-3 0 9997 2 43614 93.0261 236.2044 0012213 302.4845 57.5228 15.40616824128789 CP-7 DAVE 1 43615U 18070C 20366.25249452 .00005166 00000-0 12789-3 0 9993 2 43615 93.0264 236.1220 0012397 302.6399 57.3659 15.40389132128759 ELFIN-B 1 43616U 18070D 20366.15256808 .00008494 00000-0 19632-3 0 9997 2 43616 93.0225 236.1111 0012502 303.4837 56.5223 15.42428836128812 ELFIN-A 1 43617U 18070E 20366.15473688 .00004525 00000-0 10370-3 0 9996 2 43617 93.0280 236.7980 0011819 299.6598 60.3480 15.42733594128823 STARS-Me Mother 1 43640U 98067PQ 20366.49031652 .00039336 00000-0 26507-3 0 9991 2 43640 51.6337 23.8393 0005193 54.0689 306.0791 15.74703880127663 CubeBel 1 1 43666U 18083E 20366.73761622 .00002187 00000-0 10819-3 0 9996 2 43666 97.4727 31.1196 0015854 38.5783 73.0910 15.18775219120550 Changshagaoxin 1 43669U 18083H 20366.73145292 .00001637 00000-0 84478-4 0 9990 2 43669 97.4617 28.7018 0011692 35.3043 76.1198 15.17697623120447 Ten-Koh 1 43677U 18084G 20366.34614712 .00000389 00000-0 45844-4 0 9992 2 43677 97.9021 123.1943 0015037 225.5656 134.4332 14.90378227118268 PO-101 1 43678U 18084H 20366.82605152 .00000034 00000-0 91161-5 0 9995 2 43678 97.9037 125.4910 0008686 241.3086 118.7286 14.91690534118442 IRVINE 01 1 43693U 18088D 20366.29495287 .00005537 00000-0 22532-3 0 9990 2 43693 85.0354 306.6067 0014685 290.3106 69.6559 15.24174442118818 QO-100 1 43700U 18090A 20366.49077264 .00000161 00000-0 00000-0 0 9996 2 43700 0.0229 20.8950 0001989 297.2711 344.7112 1.00272951 7689 Reaktor Hello World 1 43743U 18096AA 20366.65357980 .00002648 00000-0 99000-4 0 9997 2 43743 97.4041 79.3926 0018457 146.6774 213.5631 15.28081594116501 MinXSS-2 1 43758U 18099A 20366.68027332 .00001125 00000-0 10565-3 0 9991 2 43758 97.6876 75.2041 0014166 247.3463 112.6260 14.95861543113434 AO-95 1 43770U 18099N 20366.47956309 .00000993 00000-0 95595-4 0 9996 2 43770 97.6865 74.2175 0013058 257.4091 102.5669 14.95156036113357 RANGE-B 1 43772U 18099Q 20366.13741075 .00001010 00000-0 96557-4 0 9993 2 43772 97.6939 74.6332 0012927 244.2738 115.7149 14.95400216113302 RANGE-A 1 43773U 18099R 20366.47535609 .00000841 00000-0 81842-4 0 9997 2 43773 97.6802 73.6942 0012209 243.0139 116.9836 14.95091586113349 MOVE-II 1 43780U 18099Y 20366.43642245 .00000606 00000-0 59605-4 0 9997 2 43780 97.6877 74.5366 0012090 254.7388 105.2497 14.95663844113359 SNUSat 2 1 43782U 18099AA 20366.47320975 .00000909 00000-0 87413-4 0 9990 2 43782 97.6861 74.4937 0011472 241.7227 118.2837 14.95410597113366 SnugLite 1 43784U 18099AC 20366.16028117 .00000613 00000-0 60422-4 0 9994 2 43784 97.6831 73.9584 0013608 252.5875 107.3858 14.95523520113339 ITASat 1 1 43786U 18099AE 20366.43304334 .00000309 00000-0 33101-4 0 9990 2 43786 97.6885 74.7325 0013737 250.8865 109.0869 14.95474241113375 EAGLET 1 1 43790U 18099AJ 20366.44192184 .00000003 00000-0 53748-5 0 9995 2 43790 97.6873 75.0828 0012117 255.4331 104.5547 14.95851787113095 ESEO 1 43792U 18099AL 20366.47045672 .00000502 00000-0 50244-4 0 9990 2 43792 97.6840 74.8243 0011915 251.1477 108.8452 14.95669020113154 CSIM 1 43793U 18099AM 20366.44531737 .00000413 00000-0 41576-4 0 9999 2 43793 97.6854 74.9481 0011842 247.6742 112.3225 14.96319607113140 Astrocast 0.1 1 43798U 18099AS 20366.21043062 .00000886 00000-0 84012-4 0 9994 2 43798 97.6873 74.9985 0011265 232.0775 127.9429 14.95999252113369 JO-97 1 43803U 18099AX 20366.15496345 .00000924 00000-0 88062-4 0 9992 2 43803 97.6844 74.2361 0013628 251.5752 108.3988 14.95684710113331 Suomi 100 1 43804U 18099AY 20366.15770388 .00000765 00000-0 73879-4 0 9998 2 43804 97.6843 74.2175 0013680 251.7949 108.1783 14.95665171113344 Al Farabi 2 1 43805U 18099AZ 20366.58198621 .00000079 00000-0 12241-4 0 9994 2 43805 97.6855 74.7813 0013933 251.0534 108.9194 14.95829930113413 PWSat 2 1 43814U 18099BJ 20366.48962820 .00203363 00000-0 54283-2 0 9994 2 43814 97.7899 93.5067 0011651 246.3754 113.6267 15.37236018113643 CHOMPTT 1 43855U 18104G 20366.13412667 .00001668 00000-0 67959-4 0 9997 2 43855 85.0366 45.0302 0019078 52.4797 307.8176 15.23463979113464 ISAT 1 43879U 18111D 20366.77116045 .00001343 00000-0 12335-3 0 9999 2 43879 97.6941 270.9049 0011784 309.6995 50.3187 14.96443061107978 UWE-4 1 43880U 18111E 20366.25118251 .00000174 00000-0 20279-4 0 9993 2 43880 97.6964 270.7728 0011329 313.1458 46.8815 14.96682088109925 Sparrow 1 43881U 18111F 20366.49518601 .00001278 00000-0 11684-3 0 9998 2 43881 97.6970 271.1140 0011102 309.6134 50.4107 14.96730469109962 Lume 1 1 43908U 18111AJ 20366.78170824 .00002017 00000-0 81657-4 0 9991 2 43908 97.2497 260.7319 0021306 160.5205 199.6853 15.25622093112104 FO-98 1 43933U 19003B 20366.38497871 .00001591 00000-0 69809-4 0 9991 2 43933 97.2024 48.3323 0015785 266.8527 93.0904 15.23268379108496 FO-99 1 43937U 19003F 20366.78057142 .00002381 00000-0 97511-4 0 9991 2 43937 97.2007 50.5254 0022066 244.8795 115.0154 15.25037999108702 Delphini 1 1 44030U 98067PW 20366.77505175 .00099694 00000-0 46077-3 0 9999 2 44030 51.6305 24.9258 0005060 62.5122 297.6395 15.82700955109544 MYSat 1 1 44045U 18092F 20366.81678245 .00004663 00000-0 13214-3 0 9998 2 44045 51.6370 163.1260 0010361 319.3026 40.7183 15.38203537105641 AstroCast 0.2 1 44083U 19018F 20366.75346586 .00001290 00000-0 59463-4 0 9992 2 44083 97.3973 64.8233 0012627 193.7209 166.3685 15.21997268 97386 AISTechSat 3 1 44103U 19018AB 20366.69619609 .00001617 00000-0 70389-4 0 9990 2 44103 97.3847 65.0616 0012448 208.1471 251.1517 15.23603026 97464 AISat 1 1 44104U 19018AC 20366.13121390 .00002030 00000-0 66197-4 0 9997 2 44104 97.4447 76.8529 0056120 233.1851 126.4234 15.31533292 97905 Raavana-1 1 44329U 98067QE 20366.20143590 .00028631 00000-0 29537-3 0 9992 2 44329 51.6381 64.2112 0006092 17.8389 342.2819 15.64541830 87727 Uguisu 1 44330U 98067QF 20366.16471809 .00026327 00000-0 27410-3 0 9994 2 44330 51.6355 64.6639 0006053 17.1770 342.9429 15.64358764 87694 NepaliSat-1 1 44331U 98067QG 20366.57580161 .00025955 00000-0 26826-3 0 9998 2 44331 51.6353 62.1616 0006181 21.1810 338.9440 15.64552355 87772 Prox-1 1 44339U 19036A 20366.22277430 .00001095 00000-0 20863-3 0 9993 2 44339 24.0010 313.5088 0011777 141.8225 218.3101 14.53303445 80721 Oculus-ASR 1 44348U 19036K 20366.81949606 .00012151 00000-0 17103-3 0 9997 2 44348 28.5152 165.1277 0348341 259.3674 96.7510 15.07345099 83558 Armadillo 1 44352U 19036P 20366.75812941 .00017686 00000-0 24165-3 0 9990 2 44352 28.5308 154.4540 0327401 275.4598 80.8738 15.12342823 83608 NO-104 1 44354U 19036R 20366.47356979 .00014005 00000-0 19386-3 0 9996 2 44354 28.5300 162.7526 0344307 261.6366 94.5056 15.08598080 83543 NO-103 1 44355U 19036S 20366.51511636 .00026421 00000-0 32976-3 0 9990 2 44355 28.5290 139.5097 0304333 299.5077 57.5492 15.18930215 83781 CP9 1 44360U 19036X 20366.51760549 .00052047 -55590-5 48806-3 0 9997 2 44360 28.5098 105.7690 0263196 355.8950 3.9503 15.32400650 83996 Move-IIb 1 44398U 19038N 20366.62589575 .00002314 00000-0 13392-3 0 9994 2 44398 97.5603 325.6986 0025015 164.5863 195.6149 15.12990511 82385 SONATE 1 44400U 19038Q 20366.85892023 .00000850 00000-0 52623-4 0 9992 2 44400 97.5660 325.9063 0025115 163.2140 196.9929 15.12249315 82408 BeeSat 9 1 44412U 19038AC 20366.15797757 .00001559 00000-0 92126-4 0 9995 2 44412 97.5660 325.3781 0022534 169.8858 190.2831 15.12775675 82000 JAISAT-1 1 44419U 19038F 20366.64440742 .00001578 00000-0 92052-4 0 9994 2 44419 97.5664 326.2756 0021516 166.5482 193.6327 15.13260919 82412 LightSail-2 1 44420U 19036AC 20366.48414474 .00005200 00000-0 10595-2 0 9995 2 44420 24.0070 300.8664 0022833 147.8782 212.3105 14.57996311 79041 Taurus 1 1 44530U 19059C 20366.78167350 .00000692 00000-0 20736-3 0 9992 2 44530 98.5602 89.7073 0013124 286.4974 73.4775 14.45839426 68859 Duchifat 3 1 44854U 19089C 20366.71060266 .00000735 00000-0 65423-4 0 9996 2 44854 36.9668 12.4580 0008199 226.2891 133.7168 14.99276856 57910 OPS-SAT 1 44878U 19092F 20366.50171200 .00001889 00000-0 10156-3 0 9997 2 44878 97.4683 186.5385 0014882 38.1243 322.1040 15.16005961 57389 TO-108 1 44881U 19093C 20366.82487322 .00000068 00000-0 15435-4 0 9996 2 44881 97.9422 81.3529 0016131 113.9936 246.2957 14.81420996 55911 FloripaSat 1 1 44885U 19093G 20366.73368337 .00000430 00000-0 60585-4 0 9993 2 44885 97.9428 81.6150 0015882 124.4720 235.7999 14.82167809 55926 RS-44 1 44909U 19096E 20366.37899640 .00000038 00000-0 99406-4 0 9997 2 44909 82.5204 224.4626 0218192 125.9410 236.2152 12.79708028 47376 SwampSat-2 1 45115U 19071E 20366.71986038 .00027279 00000-0 63661-3 0 9995 2 45115 51.6397 123.4318 0009631 49.2042 310.9777 15.41965192 51475 HO-107 1 45119U 19071J 20366.73097516 .00003227 00000-0 10574-3 0 9997 2 45119 51.6419 129.4094 0012142 46.7052 313.4941 15.34631621 51408 Phoenix 1 45258U 98067RB 20366.69445868 .00009104 00000-0 14822-3 0 9995 2 45258 51.6412 86.2641 0006107 355.5596 4.5339 15.53430069 49108 AztechSat-1 1 45261U 98067RE 20366.67154420 .00018872 00000-0 26191-3 0 9992 2 45261 51.6403 83.1241 0007669 9.0487 351.0641 15.57040996 49160 QARMAN 1 45263U 98067RG 20366.70260953 .00015882 00000-0 23502-3 0 9998 2 45263 51.6406 84.8279 0007171 6.4777 353.6306 15.55440355 49184 Quetzal 1 1 45598U 98067RL 20366.51571635 .00016022 00000-0 24785-3 0 9991 2 45598 51.6417 88.0857 0002536 81.2438 278.8840 15.54229719 38390 BY70-2 1 45857U 20042B 20366.81587140 .00001395 00000-0 20705-3 0 9993 2 45857 97.9999 78.2551 0011396 41.4638 318.7423 14.76590858 26804 UPMSat 2 1 46276U 20061E 20366.73685265 .00000858 00000-0 47811-4 0 9999 2 46276 97.4521 77.7511 0001212 150.4731 209.6570 15.16215675 18120 AmicalSat 1 46287U 20061R 20366.48948766 .00001269 00000-0 81655-4 0 9992 2 46287 97.5074 77.3119 0001880 348.0965 12.0220 15.10155629 17999 SALSAT 1 46495U 20068K 20366.60132251 .00000158 00000-0 16176-4 0 9990 2 46495 97.6803 299.2605 0014961 283.4722 76.4836 15.03312646 14117 BY70-3 1 46839U 20079N 20366.84448263 .00003795 00000-0 12298-3 0 9993 2 46839 97.2606 78.0034 0009036 88.0490 48.8148 15.32568728 8526 Bobcat-1 1 46921U 98067RR 20366.41936681 .00008940 00000-0 15724-3 0 9990 2 46921 51.6436 91.9360 0001964 159.9709 200.1358 15.51281559 8758 SPOC 1 46922U 98067RS 20366.54223481 .00011647 00000-0 19972-3 0 9999 2 46922 51.6439 91.2580 0001500 164.8172 195.2863 15.51662815 8735 Neutron-1 1 46923U 98067RT 20366.42258153 .00008881 00000-0 15679-3 0 9997 2 46923 51.6435 91.9569 0001753 175.5817 184.5188 15.51182703 8780 /EX